Showing default

LEGION 2, 59626

Orbit data source: Space-Track

LEGION 2, 59626 is a payload satellite owned by Maxar Intel (US) in SSO that was launched on Thu, 02 May 2024 UTC via an FALCON 9 launch vehicle from the Air Force Western Test Range (AFWTR). Payload-class satellites include a variety of spacecraft equipped with specific instruments for various scientific and technological missions. These include communications satellites like Starlink; space stations such as the ISS; scientific satellites like the Hubble; Earth observation satellites from companies like Planet Labs, Umbra, and HawkEye 360; GPS; miniature CubeSats for education and research; and military/defense satellites.

Loading next visibility...
Identifier
59626, 2024-081B
Orbit
SSO
Country
Flag of USUS
Related business
Manufacturer
Maxar Space Inf
Mission
Operational Commercial Imaging
Bus & Motor
LEGION, Unknown motor
Mass
~700 kg wet, 630 kg dry
Launch date (UTC)
2024-05-02 (2 years ago)
Launch vehicle
FALCON 9
Launch site
Air Force Western Test Range (AFWTR)
Object type
Payload
Rocket body
Debris
Shape & HBR
Box + 1 Pan, 1.5 m
Radar Cross Section
9.079 m², Large (>1 m²)

Expand to show TLE details & history
Last TLE update: 2 days ago

TLE from 2 days ago
0 LEGION 2
1 59626U 24081B   26171.48983050  .00002864  00000-0  14962-3 0  9992
2 59626  97.5015 249.4091 0010476 331.4775  28.5884 15.16663670118044
Epoch: 2026-06-20T11:45Z
TLE epoch observation values (Epoch: 2026-06-20T11:45:21.355Z)
Latitude
0.00003°
Longitude
164.3664°
Altitude
512.674 km
Speed
7.611 km/s
True Right ascension
16h 37m 38s
True Declination
0° 00' 00"
Sunlit
Object was in full shadow at epoch
Visualization orbit readout
Latitude
Unknown
Longitude
Unknown
Altitude
Unknown
Speed
Unknown
Apparent Right ascension
Unknown
Apparent Declination
Unknown
Sunlit
N/A
Visualization observer readout
Local Sidereal Time
21:43:31
Azimuth
Unknown
Elevation
Unknown
Doppler factor
Unknown
Orbital elements
Apogee altitude
520.126 km
Perigee altitude
505.688 km
Semi-major axis
6,891.044 km
Eccentricity
0.00105
Inclination
97.5015°
RAAN
249.4091°
Arg. of periapsis
331.4775°
True anomaly
28.64591°
Mean anomaly
28.5884°
Eccentric anomaly
28.61715°
Mean motion
3.79416 °/min
Orbital period
94.88 mins
BSTAR
0.00014962
Loading maneuver chart data...
Computing Atmospheric mass density...
Loading historical data...
Loading historical data...
Loading historical data...
Loading historical data...
Loading historical data...
Loading historical data...
Loading historical data...
Other satellites on launch #81 in the year 2024 (2024-05-02 UTC)

Documentation

Showing up to 5 results
|